[[{"header":{"parameterUnit":"m.s-1","parameterCategory":1,"la1":30.2991,"la2":30.254,"lo1":-89.0895,"lo2":-89.0444,"dy":0.0017,"dx":0.0017,"nx":28,"ny":28,"refTime":"2023-10-10T21:00:00:Z","depth":0,"parameterNumber":2,"parameterNumberName":"U-component_of_WINDS"},"data":[0,0,0,0,0,0,0,0,0,0,0,0,0,0,0,0,0,0,0,0,0,0,0,0,0,0,0,0,0,0,0,0,0,0,0,0,0,0,0,0,0,0,0,0,0,0,0,0,0,0,0,0,0,0,0,0,0,0,-0.1625,-0.1625,0,-0.1593,-0.1592,-0.1592,-0.1591,-0.1591,-0.1592,-0.1592,-0.1556,-0.1555,-0.1554,0,0,0,0,0,0,0,0,0,0,0,0,0,-0.1683,-0.1682,-0.1625,-0.1625,-0.1624,-0.1593,-0.1592,-0.1592,-0.1591,-0.1591,-0.1592,-0.1592,-0.1557,-0.1555,-0.1554,0,0,0,0,0,0,0,0,0,0,0,0,0,-0.1655,-0.1682,-0.1625,-0.162,-0.1619,-0.1593,-0.1592,-0.1592,-0.1591,-0.1591,-0.1592,-0.1592,-0.1557,-0.1555,-0.1553,-0.1529,0,0,-0.1547,-0.1547,0,0,0,0,0,0,0,0,-0.1656,-0.1653,-0.1621,-0.162,-0.1619,-0.1596,-0.16,-0.1571,-0.159,-0.1601,-0.1592,-0.1593,-0.1569,-0.1566,-0.1559,-0.1528,-0.1526,-0.1547,-0.1546,-0.1545,-0.1545,0,0,0,0,0,0,0,-0.1658,-0.1654,-0.1612,-0.1621,-0.162,-0.1618,-0.1615,-0.1594,-0.1582,-0.16,-0.16,-0.1597,-0.1569,-0.1561,-0.1558,-0.1526,-0.1547,-0.1546,-0.1544,-0.1544,-0.1471,-0.1471,0,0,0,0,0,0,-0.1662,-0.1656,-0.1613,-0.1611,-0.164,-0.1617,-0.1613,-0.1603,-0.1582,-0.158,-0.1596,-0.1597,-0.1564,-0.156,-0.1557,-0.1526,-0.1545,-0.1543,-0.1542,-0.1472,-0.1471,-0.147,0,0,0,0,0,0,-0.1663,-0.1658,-0.1615,-0.1633,-0.1628,-0.1615,-0.1604,-0.1602,-0.1594,-0.1579,-0.1577,-0.159,-0.1564,-0.1559,-0.1536,-0.1525,-0.1542,-0.1541,-0.1473,-0.1472,-0.1471,-0.1465,0,0,0,0,0,0,-0.1665,-0.1659,-0.165,-0.1633,-0.1627,-0.1595,-0.1603,-0.1601,-0.1591,-0.1591,-0.1573,-0.1571,-0.1564,-0.1539,-0.1534,-0.1522,-0.1539,-0.1474,-0.1472,-0.1471,-0.1466,-0.1464,-0.1462,0,0,0,0,0,-0.1667,-0.165,-0.165,-0.1645,-0.1616,-0.1595,-0.1591,-0.1585,-0.159,-0.1581,-0.1571,-0.1571,-0.1527,-0.1536,-0.1531,-0.1519,-0.1475,-0.1473,-0.1471,-0.1467,-0.1464,-0.1462,0,0,0,0,0,0,-0.1665,-0.1647,-0.1647,-0.1624,-0.1611,-0.1595,-0.1583,-0.1582,-0.1567,-0.1567,-0.1559,-0.1555,-0.1532,-0.1523,-0.1534,-0.1493,-0.1501,-0.1498,-0.15,-0.1497,-0.1495,-0.1498,-0.1537,0,0,0,0,0,-0.1662,-0.1647,-0.1632,-0.1613,-0.1607,-0.1596,-0.1586,-0.1583,-0.1568,-0.1562,-0.1551,-0.1536,-0.1519,-0.1508,-0.1491,-0.1465,-0.146,-0.1454,-0.1451,-0.145,-0.1447,-0.1431,-0.1428,-0.1465,-0.1465,-0.1465,0,0,-0.1656,-0.1644,-0.1635,-0.1613,-0.1602,-0.1585,-0.1591,-0.1574,-0.1561,-0.156,-0.1537,-0.1528,-0.151,-0.1485,-0.1474,-0.1477,-0.1436,-0.1448,-0.1447,-0.1445,-0.1429,-0.1426,-0.1423,-0.1464,-0.1464,-0.1464,0,0,-0.1635,-0.1626,-0.1608,-0.1597,-0.1581,-0.1574,-0.157,-0.1553,-0.1547,-0.1524,-0.1522,-0.1506,-0.1477,-0.1464,-0.1454,-0.1428,-0.1427,-0.1422,-0.1411,-0.1396,-0.1393,-0.139,-0.138,-0.1376,-0.142,-0.142,-0.142,0,-0.1629,-0.1605,-0.1599,-0.1582,-0.1571,-0.1569,-0.1551,-0.154,-0.1519,-0.1511,-0.1516,-0.1478,-0.1466,-0.1438,-0.1431,-0.1423,-0.1417,-0.1425,-0.1394,-0.1391,-0.1389,-0.1379,-0.1375,-0.142,-0.142,-0.142,-0.142,0,-0.1598,-0.1581,-0.1569,-0.1549,-0.1537,-0.1519,-0.1509,-0.1498,-0.1495,-0.1486,-0.1462,-0.1448,-0.1428,-0.1421,-0.1417,-0.1391,-0.1393,-0.1396,-0.1404,-0.1385,-0.1375,-0.1371,-0.1419,-0.1419,-0.1419,-0.1419,0,0,-0.1576,-0.1553,-0.1548,-0.1538,-0.152,-0.1506,-0.1487,-0.1468,-0.1458,-0.1443,-0.1426,-0.1401,-0.1403,-0.1391,-0.1386,-0.1373,-0.1351,-0.1377,-0.1376,-0.1371,-0.1319,-0.1317,-0.1313,-0.135,-0.1349,-0.1349,-0.132,0,-0.1553,-0.1521,-0.1514,-0.1486,-0.147,-0.1467,-0.145,-0.1436,-0.1428,-0.1412,-0.1402,-0.1384,-0.1388,-0.1381,-0.1368,-0.1356,-0.134,-0.1358,-0.1333,-0.1332,-0.1337,-0.1308,-0.1306,-0.128,-0.1317,-0.1316,-0.1316,0,-0.1523,-0.1507,-0.1477,-0.146,-0.1452,-0.1438,-0.1419,-0.1404,-0.1387,-0.1382,-0.1368,-0.1365,-0.1343,-0.1352,-0.1322,-0.1335,-0.1324,-0.1317,-0.1315,-0.1312,-0.1323,-0.1303,-0.1271,-0.1267,-0.131,-0.131,-0.1311,0,-0.1509,-0.148,-0.1458,-0.145,-0.1429,-0.1419,-0.141,-0.1394,-0.1382,-0.1365,-0.1357,-0.1338,-0.1327,-0.1311,-0.1302,-0.1309,-0.1272,-0.128,-0.1266,-0.1266,-0.1258,-0.1258,-0.1223,-0.1252,-0.1252,-0.1252,-0.1252,0,-0.1484,-0.1465,-0.1452,-0.1438,-0.1417,-0.1409,-0.1387,-0.1378,-0.1363,-0.1347,-0.1343,-0.1327,-0.1316,-0.1298,-0.1291,-0.1266,-0.1261,-0.1255,-0.1253,-0.1255,-0.1256,-0.1248,-0.1249,-0.1251,-0.1251,-0.1251,-0.1252,0,-0.1465,-0.1455,-0.1431,-0.1413,-0.1408,-0.1393,-0.1377,-0.1363,-0.1354,-0.1333,-0.1327,-0.1313,-0.1292,-0.1281,-0.1254,-0.1249,-0.1221,-0.1221,-0.1227,-0.1226,-0.1212,-0.1213,-0.1169,-0.1163,-0.1197,-0.1196,-0.1196,0,-0.1449,-0.1435,-0.1415,-0.1404,-0.1395,-0.1377,-0.1365,-0.1356,-0.1343,-0.1323,-0.1311,-0.1289,-0.1272,-0.1238,-0.1224,-0.1204,-0.1202,-0.1188,-0.1199,-0.1201,-0.1201,-0.1201,-0.1199,-0.1186,-0.1186,-0.1186,-0.1185,0,-0.1422,-0.1418,-0.1401,-0.1382,-0.1368,-0.1353,-0.1338,-0.1329,-0.1317,-0.1303,-0.1281,-0.1268,-0.124,-0.1219,-0.1197,-0.1186,-0.1183,-0.1182,-0.1177,-0.1179,-0.1183,-0.118,-0.1221,-0.1183,-0.1183,-0.1184,-0.1184,-0.1184,-0.1404,-0.139,-0.1374,-0.1355,-0.1343,-0.1328,-0.1314,-0.1303,-0.1285,-0.1263,-0.1258,-0.1235,-0.1217,-0.1188,-0.1176,-0.1157,-0.1159,-0.1153,-0.1151,-0.115,-0.1148,-0.1187,-0.1153,-0.1153,-0.1153,-0.1153,-0.1153,0,-0.1376,-0.1365,-0.1348,-0.1326,-0.1311,-0.1311,-0.1293,-0.128,-0.126,-0.1244,-0.1227,-0.1202,-0.118,-0.1165,-0.1143,-0.113,-0.1128,-0.1125,-0.1125,-0.1122,-0.1148,-0.1154,-0.1126,-0.1126,-0.1126,-0.1126,-0.1126,-0.1126,-0.1359,-0.1336,-0.133,-0.13,-0.1289,-0.1267,-0.1257,-0.1243,-0.123,-0.1202,-0.1184,-0.1175,-0.1158,-0.1135,-0.1114,-0.111,-0.1102,-0.1098,-0.1094,-0.1118,-0.1121,-0.1123,-0.1129,-0.1097,-0.1097,-0.107,-0.1069,-0.1069]},{"header":{"parameterUnit":"m.s-1","parameterCategory":1,"la1":30.2991,"la2":30.254,"lo1":-89.0895,"lo2":-89.0444,"dy":0.0017,"dx":0.0017,"nx":28,"ny":28,"refTime":"2023-10-10T21:00:00:Z","depth":0,"parameterNumber":3,"parameterNumberName":"V-component_of_WINDS"},"data":[0,0,0,0,0,0,0,0,0,0,0,0,0,0,0,0,0,0,0,0,0,0,0,0,0,0,0,0,0,0,0,0,0,0,0,0,0,0,0,0,0,0,0,0,0,0,0,0,0,0,0,0,0,0,0,0,0,0,-3.9112,-3.9113,0,-3.92,-3.9201,-3.9202,-3.923,-3.9229,-3.9229,-3.9229,-3.9314,-3.9316,-3.9319,0,0,0,0,0,0,0,0,0,0,0,0,0,-3.8964,-3.8966,-3.9112,-3.9113,-3.9114,-3.92,-3.9201,-3.9203,-3.923,-3.9229,-3.9229,-3.9228,-3.9313,-3.9316,-3.9319,0,0,0,0,0,0,0,0,0,0,0,0,0,-3.9037,-3.8967,-3.9112,-3.9138,-3.9142,-3.92,-3.9201,-3.9203,-3.923,-3.9229,-3.9229,-3.9228,-3.9312,-3.9315,-3.9319,-3.9356,0,0,-3.9331,-3.9333,0,0,0,0,0,0,0,0,-3.9033,-3.9043,-3.9133,-3.9137,-3.914,-3.9204,-3.918,-3.9254,-3.923,-3.9196,-3.9229,-3.9228,-3.9277,-3.9284,-3.9302,-3.936,-3.9364,-3.9332,-3.9334,-3.9336,-3.9337,0,0,0,0,0,0,0,-3.9028,-3.9039,-3.9147,-3.9135,-3.9139,-3.9145,-3.9155,-3.9194,-3.9239,-3.9199,-3.9201,-3.9212,-3.9279,-3.9298,-3.9304,-3.9365,-3.9332,-3.9335,-3.9338,-3.9339,-3.9459,-3.946,0,0,0,0,0,0,-3.9019,-3.9035,-3.9144,-3.9149,-3.9084,-3.9148,-3.9159,-3.9184,-3.9239,-3.9246,-3.9212,-3.9213,-3.9291,-3.9299,-3.9307,-3.9355,-3.9336,-3.934,-3.9342,-3.9459,-3.946,-3.946,0,0,0,0,0,0,-3.9016,-3.9029,-3.914,-3.9093,-3.9108,-3.9151,-3.9179,-3.9186,-3.9205,-3.9248,-3.9256,-3.9224,-3.9291,-3.9301,-3.9344,-3.9358,-3.9341,-3.9345,-3.9458,-3.9459,-3.946,-3.945,0,0,0,0,0,0,-3.9011,-3.9027,-3.9042,-3.9093,-3.911,-3.9178,-3.918,-3.9188,-3.9212,-3.9214,-3.9261,-3.9268,-3.9291,-3.9338,-3.9348,-3.9363,-3.9348,-3.9457,-3.9458,-3.946,-3.9449,-3.9451,-3.9452,0,0,0,0,0,-3.9006,-3.9034,-3.9043,-3.9056,-3.913,-3.9178,-3.9188,-3.9215,-3.9213,-3.9228,-3.9257,-3.9267,-3.9355,-3.9342,-3.9354,-3.937,-3.9456,-3.9458,-3.946,-3.9449,-3.945,-3.9452,0,0,0,0,0,0,-3.8982,-3.9041,-3.9052,-3.9097,-3.9133,-3.9183,-3.9203,-3.9216,-3.9251,-3.9251,-3.9282,-3.9293,-3.9334,-3.9356,-3.9341,-3.9409,-3.9406,-3.941,-3.9393,-3.9395,-3.9397,-3.9391,-3.9351,0,0,0,0,0,-3.8982,-3.9018,-3.9067,-3.9103,-3.9121,-3.9159,-3.9181,-3.9199,-3.9236,-3.9251,-3.9282,-3.9317,-3.9352,-3.9375,-3.941,-3.9452,-3.9464,-3.9469,-3.9471,-3.9471,-3.9475,-3.9501,-3.9504,-3.9467,-3.9467,-3.9466,0,0,-3.8982,-3.9019,-3.904,-3.9099,-3.9129,-3.9164,-3.9171,-3.9208,-3.9234,-3.9256,-3.93,-3.9324,-3.9364,-3.9408,-3.9428,-3.9427,-3.9488,-3.9474,-3.9474,-3.9477,-3.9503,-3.9506,-3.9509,-3.9468,-3.9468,-3.9467,0,0,-3.9002,-3.9033,-3.9067,-3.9098,-3.9143,-3.9169,-3.9177,-3.9226,-3.9243,-3.9288,-3.9306,-3.9337,-3.9397,-3.9426,-3.9448,-3.9481,-3.9492,-3.9491,-3.9498,-3.9522,-3.9525,-3.9528,-3.9541,-3.9545,-3.9494,-3.9494,-3.9494,0,-3.8996,-3.9052,-3.9082,-3.912,-3.9145,-3.9169,-3.9204,-3.9231,-3.9285,-3.9302,-3.93,-3.9379,-3.9407,-3.9458,-3.9467,-3.9484,-3.9494,-3.9486,-3.9523,-3.9526,-3.9529,-3.9541,-3.9546,-3.9494,-3.9494,-3.9494,-3.9494,0,-3.9043,-3.9081,-3.9103,-3.9158,-3.9186,-3.9221,-3.9257,-3.9281,-3.9297,-3.9323,-3.9368,-3.9404,-3.9448,-3.9461,-3.9476,-3.9515,-3.9513,-3.9517,-3.9514,-3.9532,-3.9544,-3.9549,-3.9493,-3.9493,-3.9493,-3.9494,0,0,-3.9048,-3.9121,-3.9129,-3.9155,-3.9208,-3.9238,-3.9274,-3.9319,-3.934,-3.9376,-3.9408,-3.9459,-3.9464,-3.949,-3.9508,-3.953,-3.9555,-3.9531,-3.9532,-3.9535,-3.9601,-3.9599,-3.9604,-3.9562,-3.9563,-3.9564,-3.9598,0,-3.9075,-3.9144,-3.9174,-3.9228,-3.9264,-3.9288,-3.932,-3.9356,-3.938,-3.9414,-3.944,-3.9477,-3.948,-3.9496,-3.9518,-3.9547,-3.9568,-3.9545,-3.9591,-3.9593,-3.9582,-3.961,-3.9607,-3.9638,-3.9603,-3.9604,-3.9604,0,-3.9115,-3.9156,-3.9214,-3.9265,-3.9282,-3.931,-3.9355,-3.9386,-3.9427,-3.9444,-3.9473,-3.9491,-3.953,-3.9524,-3.9578,-3.9561,-3.9582,-3.9599,-3.9601,-3.9607,-3.96,-3.9617,-3.9648,-3.9653,-3.9612,-3.9611,-3.9611,0,-3.9115,-3.9183,-3.9228,-3.9249,-3.9309,-3.9329,-3.9354,-3.9395,-3.9421,-3.9459,-3.9476,-3.9517,-3.9539,-3.957,-3.9599,-3.9592,-3.965,-3.9647,-3.9665,-3.9664,-3.9677,-3.9676,-3.9712,-3.9688,-3.9688,-3.9688,-3.9688,0,-3.9143,-3.9178,-3.9229,-3.9257,-3.9297,-3.9331,-3.9369,-3.9396,-3.9432,-3.9465,-3.9487,-3.9516,-3.9552,-3.9586,-3.9608,-3.965,-3.9659,-3.9674,-3.9679,-3.9673,-3.9671,-3.9687,-3.9686,-3.9689,-3.9689,-3.9689,-3.9689,0,-3.9149,-3.9185,-3.9236,-3.9289,-3.9304,-3.9331,-3.9377,-3.9404,-3.943,-3.9471,-3.9483,-3.9524,-3.9565,-3.9597,-3.965,-3.9665,-3.971,-3.9715,-3.9697,-3.97,-3.9717,-3.9715,-3.9765,-3.9774,-3.9744,-3.9744,-3.9744,0,-3.9165,-3.9193,-3.9251,-3.9276,-3.9302,-3.9341,-3.9368,-3.9402,-3.9429,-3.9479,-3.95,-3.9544,-3.958,-3.9645,-3.9679,-3.972,-3.9727,-3.9742,-3.9733,-3.9726,-3.9729,-3.9727,-3.973,-3.9743,-3.9743,-3.9743,-3.9743,0,-3.9189,-3.9206,-3.9246,-3.9292,-3.9325,-3.9362,-3.94,-3.9418,-3.9458,-3.9488,-3.9532,-3.9561,-3.9616,-3.9659,-3.9704,-3.9729,-3.9743,-3.9746,-3.9753,-3.9746,-3.9735,-3.9743,-3.9701,-3.9745,-3.9744,-3.9744,-3.9744,-3.9744,-3.9202,-3.9229,-3.9275,-3.9318,-3.9351,-3.9386,-3.9415,-3.9447,-3.9485,-3.9534,-3.9551,-3.9597,-3.9638,-3.97,-3.9725,-3.9761,-3.9761,-3.977,-3.9773,-3.9775,-3.9775,-3.9729,-3.9769,-3.9769,-3.9769,-3.9769,-3.9769,0,-3.9229,-3.926,-3.93,-3.9353,-3.9388,-3.94,-3.9443,-3.947,-3.9511,-3.9549,-3.9586,-3.9637,-3.9679,-3.9717,-3.9761,-3.9782,-3.979,-3.9792,-3.9791,-3.9797,-3.9772,-3.9762,-3.9786,-3.9786,-3.9786,-3.9786,-3.9786,-3.9786,-3.9247,-3.9294,-3.9316,-3.938,-3.941,-3.9457,-3.9481,-3.9513,-3.9544,-3.9601,-3.9637,-3.9663,-3.9701,-3.9748,-3.9787,-3.9797,-3.9812,-3.9814,-3.9825,-3.9801,-3.9799,-3.9797,-3.9788,-3.9817,-3.9817,-3.9848,-3.9849,-3.9849]}]]